FW4805 Weather Reports


Display with metric or nautical units.
time (UTC)temp
F
wind
direction
speed
MPH
gust
MPH
rain 1hr
in
rain 24hr
in
rain mn
in
humidity
%
barometer
mb
20260902051002 81 31 11.0 25.0 0.00 0.00 0.00 50 1013.1
20260902050002 81 18 13.0 24.0 0.00 0.00 0.00 51 1013.1
20260902045001 81 51 9.0 20.0 0.00 0.00 0.00 48 1013.0
20260902044002 82 35 12.0 24.0 0.00 0.00 0.00 47 1012.9
20260902043001 81 28 10.0 23.0 0.00 0.00 0.00 45 1012.9
20260902042001 80 11 9.0 19.0 0.00 0.00 0.00 52 1012.8
20260902041002 80 13 10.0 25.0 0.00 0.00 0.00 53 1012.6
20260902040002 80 23 10.0 20.0 0.00 0.00 0.00 56 1012.6
20260902035002 80 31 10.0 20.0 0.00 0.00 0.00 51 1012.5
20260902033002 80 6 10.0 21.0 0.00 0.00 0.00 53 1012.3
20260902032002 80 18 11.0 29.0 0.00 0.00 0.00 56 1012.4
20260902031002 80 4 12.0 24.0 0.00 0.00 0.00 58 1012.4
20260902030002 80 358 8.0 25.0 0.00 0.00 0.00 58 1012.2
20260902025002 80 10 11.0 21.0 0.00 0.00 0.00 57 1012.2
20260902024002 80 15 8.0 20.0 0.00 0.00 0.00 57 1012.2
20260902023002 80 19 8.0 20.0 0.00 0.00 0.00 55 1012.3
20260902022002 79 4 9.0 26.0 0.00 0.00 0.00 58 1012.3
20260902021002 79 3 10.0 20.0 0.00 0.00 0.00 58 1012.4
20260902020002 80 3 8.0 20.0 0.00 0.00 0.00 58 1012.5
20260902014002 80 3 7.0 20.0 0.00 0.00 0.00 56 1012.3
20260902012002 80 354 9.0 20.0 0.00 0.00 0.00 58 1012.3
20260902010002 80 30 10.0 19.0 0.00 0.00 0.00 60 1012.2
20260902005002 80 50 8.0 20.0 0.00 0.00 0.00 59 1012.4
20260902004002 81 43 8.0 20.0 0.00 0.00 0.00 54 1012.2
20260902003002 81 24 8.0 20.0 0.00 0.00 0.00 49 1012.3
20260902002002 81 48 8.0 23.0 0.00 0.00 0.00 54 1012.4
20260902000002 81 61 8.0 25.0 0.00 0.00 0.00 54 1012.6
20260901235002 81 54 8.0 17.0 0.00 0.00 0.00 57 1012.6
20260901234002 81 12 8.0 21.0 0.00 0.00 0.00 56 1012.5
20260901233002 81 22 7.0 17.0 0.00 0.00 0.00 54 1012.6
20260901231002 81 44 7.0 14.0 0.00 0.00 0.00 52 1012.6
20260901230002 82 48 8.0 20.0 0.00 0.00 0.00 51 1012.5
20260901225001 82 52 6.0 15.0 0.00 0.00 0.00 52 1012.6
20260901221002 82 349 8.0 17.0 0.00 0.00 0.00 53 1012.7
20260901215002 83 24 7.0 21.0 0.00 0.00 0.00 45 1012.7
20260901214002 83 9 9.0 17.0 0.00 0.00 0.00 44 1012.6
20260901213002 83 51 7.0 17.0 0.00 0.00 0.00 43 1012.7
20260901212002 84 54 8.0 19.0 0.00 0.00 0.00 42 1012.8
20260901211002 84 69 10.0 17.0 0.00 0.00 0.00 41 1012.6
20260901210004 84 63 8.0 17.0 0.00 0.00 0.00 41 1012.7
20260901205002 84 46 7.0 19.0 0.00 0.00 0.00 40 1012.7
20260901203002 84 58 6.0 16.0 0.00 0.00 0.00 39 1012.7
20260901202002 84 30 7.0 19.0 0.00 0.00 0.00 39 1012.7
20260901201002 84 27 7.0 19.0 0.00 0.00 0.00 39 1012.7
20260901200002 84 38 6.0 19.0 0.00 0.00 0.00 39 1012.9
20260901195002 84 354 6.0 19.0 0.00 0.00 0.00 39 1012.8
20260901194002 84 355 8.0 17.0 0.00 0.00 0.00 39 1012.8
20260901193002 84 4 7.0 21.0 0.00 0.00 0.00 39 1012.8
20260901191002 84 21 7.0 17.0 0.00 0.00 0.00 39 1012.9
20260901190002 83 341 6.0 21.0 0.00 0.00 0.00 40 1012.9
20260901185002 84 7 7.0 19.0 0.00 0.00 0.00 37 1012.7
20260901184002 84 346 6.0 17.0 0.00 0.00 0.00 37 1012.6
20260901183002 83 344 6.0 20.0 0.00 0.00 0.00 40 1012.7
20260901182003 83 347 8.0 17.0 0.00 0.00 0.00 41 1012.5
20260901181002 83 343 9.0 17.0 0.00 0.00 0.00 40 1012.4
20260901180002 83 8 10.0 27.0 0.00 0.00 0.00 40 1012.4
20260901175003 83 7 8.0 23.0 0.00 0.00 0.00 39 1012.2
20260901173003 83 22 6.0 16.0 0.00 0.00 0.00 39 1012.2
20260901172002 83 47 7.0 17.0 0.00 0.00 0.00 38 1011.9
20260901171002 84 44 8.0 19.0 0.00 0.00 0.00 39 1011.8
20260901170002 83 25 8.0 16.0 0.00 0.00 0.00 39 1011.7
20260901165002 83 6 10.0 20.0 0.00 0.00 0.00 40 1011.8
20260901164003 83 19 6.0 16.0 0.00 0.00 0.00 44 1011.7
20260901163003 83 34 8.0 20.0 0.00 0.00 0.00 42 1011.7
20260901161002 83 38 8.0 16.0 0.00 0.00 0.00 41 1011.8
20260901160002 83 30 8.0 17.0 0.00 0.00 0.00 41 1011.6
20260901155002 84 7 8.0 17.0 0.00 0.00 0.00 39 1011.6
20260901154002 84 21 9.0 19.0 0.00 0.00 0.00 41 1011.8
20260901153002 84 71 6.0 15.0 0.00 0.00 0.00 39 1011.8
20260901151002 84 25 10.0 19.0 0.00 0.00 0.00 36 1012.1
20260901150003 84 44 10.0 21.0 0.00 0.00 0.00 39 1011.9
20260901145003 84 28 10.0 25.0 0.00 0.00 0.00 38 1012.1
20260901144003 84 25 11.0 23.0 0.00 0.00 0.00 41 1012.0
20260901143002 84 38 11.0 25.0 0.00 0.00 0.00 43 1011.8
20260901142002 85 10 12.0 21.0 0.00 0.00 0.00 41 1011.7
20260901141002 85 355 15.0 30.0 0.00 0.00 0.00 39 1011.8
20260901140003 85 10 11.0 26.0 0.00 0.00 0.00 39 1011.7
20260901134003 85 26 12.0 25.0 0.00 0.00 0.00 43 1012.0
20260901133003 85 17 10.0 19.0 0.00 0.00 0.00 42 1012.0
20260901132002 85 60 11.0 19.0 0.00 0.00 0.00 44 1012.2
20260901131002 86 48 10.0 20.0 0.00 0.00 0.00 48 1012.2
20260901130002 86 54 13.0 21.0 0.00 0.00 0.00 39 1012.2
20260901125002 86 62 13.0 29.0 0.00 0.00 0.00 36 1012.3
20260901124002 86 56 10.0 23.0 0.00 0.00 0.00 40 1012.4
20260901122003 87 69 12.0 30.0 0.00 0.00 0.00 38 1012.5
20260901121003 87 37 10.0 20.0 0.00 0.00 0.00 41 1012.6
20260901120003 87 65 8.0 17.0 0.00 0.00 0.00 44 1012.6
20260901115003 87 63 7.0 21.0 0.00 0.00 0.00 44 1012.6
20260901114002 88 63 9.0 16.0 0.00 0.00 0.00 42 1012.6
20260901113002 87 70 10.0 21.0 0.00 0.00 0.00 43 1012.7
20260901112002 87 76 9.0 16.0 0.00 0.00 0.00 48 1012.6
20260901111002 85 61 12.0 24.0 0.00 0.00 0.00 53 1012.8
20260901110003 86 58 9.0 23.0 0.00 0.00 0.00 46 1012.7
20260901104003 85 27 10.0 23.0 0.00 0.00 0.00 52 1013.0
20260901103003 86 68 7.0 17.0 0.00 0.00 0.00 51 1012.8
20260901102003 85 66 9.0 26.0 0.00 0.00 0.00 50 1012.9
20260901101002 86 52 9.0 20.0 0.00 0.00 0.00 52 1012.8
20260901095002 85 63 13.0 21.0 0.00 0.00 0.00 49 1012.8
20260901094002 86 63 9.0 24.0 0.00 0.00 0.00 51 1012.8
20260901091002 85 53 10.0 21.0 0.00 0.00 0.00 55 1012.9
20260901090002 85 57 8.0 20.0 0.00 0.00 0.00 52 1012.9
20260901085003 85 68 10.0 19.0 0.00 0.00 0.00 51 1012.8
20260901084003 84 60 9.0 21.0 0.00 0.00 0.00 51 1012.7
20260901083003 84 54 11.0 25.0 0.00 0.00 0.00 54 1012.9
20260901082003 83 62 8.0 17.0 0.00 0.00 0.00 55 1012.9
20260901081002 83 74 6.0 11.0 0.00 0.00 0.00 58 1012.9
20260901080002 83 53 10.0 21.0 0.00 0.00 0.00 58 1012.9
20260901075002 82 63 10.0 21.0 0.00 0.00 0.00 58 1012.8
20260901074002 82 70 12.0 20.0 0.00 0.00 0.00 57 1012.7
20260901073003 83 53 9.0 21.0 0.00 0.00 0.00 57 1012.7
20260901072003 82 61 12.0 24.0 0.00 0.00 0.00 54 1012.6
20260901071003 82 66 9.0 20.0 0.00 0.00 0.00 56 1012.5
20260901070003 82 56 11.0 23.0 0.00 0.00 0.00 58 1012.5
20260901065002 81 69 11.0 25.0 0.00 0.00 0.00 61 1012.2
20260901063002 81 56 10.0 20.0 0.00 0.00 0.00 59 1012.3
20260901061002 80 51 11.0 24.0 0.00 0.00 0.00 60 1012.2
20260901055003 79 58 10.0 20.0 0.00 0.00 0.00 63 1012.2
20260901054003 78 66 10.0 19.0 0.00 0.00 0.00 66 1012.4
20260901053003 78 51 7.0 20.0 0.00 0.00 0.00 65 1012.4